Location: Hilton Head Island
(32.2163°N, 80.7526°W)
Time: 02:54:49
(UTC-04:00)

Tiros 1 despin weight - Pass Details

Date: 22 February 2026
Orbit: 556 x 593 km, 48.2° (Epoch: 9 March)

Event Time Altitude Azimuth Distance (km) Brightness Sun altitude
Rises 11:59:15 0° 212° (SSW) 2,762 ? 46.8°
Reaches altitude 10° 12:01:37 10° 204° (SSW) 1,860 ? 47.0°
Maximum altitude 12:05:36 40° 135° (SE) 839 ? 47.1°
Drops below altitude 10° 12:09:33 10° 65° (ENE) 1,848 ? 47.3°
Sets 12:11:53 0° 58° (ENE) 2,741 ? 47.4°
